Weather History for KMSN - May, 2014

Change the Weather History Date:

Tuesday, May 27, 2014

  Actual Average Record
Temperature  
Mean Temperature 73 °F 61 °F  
Max Temperature 85 °F 72 °F 94 °F (2012)
Min Temperature 61 °F 50 °F 31 °F (1971)
Degree Days  
Heating Degree Days 0 6  
Month to date heating degree days 207 246  
Since 1 July heating degree days 8047 7253  
Cooling Degree Days 8 1  
Month to date cooling degree days 41 17  
Year to date cooling degree days 41 21  
Growing Degree Days 24 (Base 50)    
Moisture  
Dew Point 66 °F    
Average Humidity 73    
Maximum Humidity 90    
Minimum Humidity 55    
Precipitation  
Precipitation 1.46 in 0.13 in 1.46 in (2014)
Month to date precipitation 3.47 3.04  
Year to date precipitation 11.75 11.32  
Snow  
Snow 0.00 in 0.00 in 0.00 in ()
Month to date snowfall 0.0 0.2  
Since 1 July snowfall 59.2 50.9  
Snow Depth 0.00 in    
Sea Level Pressure  
Sea Level Pressure 29.90 in    
Wind  
Wind Speed 5 mph (ESE)    
Max Wind Speed 18 mph    
Max Gust Speed 22 mph    
Visibility 7 miles    
Events Rain , Thunderstorm    
T = Trace of Precipitation, MM = Missing Value Source: NWS Daily Summary

Daily Weather History Graph

Daily Weather History Graph

Search for Another Location

Airport or City:

Trip Planner

Search our weather history database for the weather conditions in past years. The results will help you decide how hot, cold, wet, or windy it might be!

Date:

Astronomy

May. 27, 2014 Rise Set
Actual Time 5:23 AM CDT 8:26 PM CDT
Civil Twilight 4:49 AM CDT 9:00 PM CDT
Nautical Twilight 4:05 AM CDT 9:44 PM CDT
Astronomical Twilight 3:14 AM CDT 10:36 PM CDT
Moon 4:48 AM CDT 7:26 PM CDT
Length of Visible Light 16h 11m
Length of Day
15h 02m
Waning Crescent, 1% of the Moon is Illuminated
May 27
Waning Crescent
May 28
New
Jun 5
First Quarter
Jun 12
Full
Jun 19
Last Quarter

Hourly Weather History & Observations

Time (CDT) Temp. Heat Index Dew Point Humidity Pressure Visibility Wind Dir Wind Speed Gust Speed Precip Events Conditions
12:53 AM 71.1 °F - 66.0 °F 84% 29.90 in 10.0 mi SSW 6.9 mph - N/A   Clear
1:53 AM 71.1 °F - 64.9 °F 81% 29.87 in 10.0 mi SSW 3.5 mph - N/A   Mostly Cloudy
2:53 AM 70.0 °F - 66.0 °F 87% 29.88 in 10.0 mi Calm Calm - N/A   Overcast
3:53 AM 70.0 °F - 66.0 °F 87% 29.88 in 10.0 mi SW 4.6 mph - N/A   Overcast
4:53 AM 69.1 °F - 66.0 °F 90% 29.88 in 9.0 mi Calm Calm - N/A   Overcast
5:53 AM 68.0 °F - 64.9 °F 90% 29.89 in 6.0 mi Calm Calm - N/A   Overcast
6:53 AM 70.0 °F - 66.9 °F 90% 29.90 in 6.0 mi Calm Calm - 0.00 in   Overcast
7:22 AM 69.1 °F - 66.9 °F 93% 29.91 in 1.8 mi West 4.6 mph - 0.02 in Rain Rain
7:32 AM 69.1 °F - 66.9 °F 93% 29.91 in 2.0 mi Calm Calm - 0.25 in Rain Light Rain
7:35 AM 69.1 °F - 66.9 °F 93% 29.91 in 3.0 mi Calm Calm - 0.26 in Rain Light Rain
7:53 AM 70.0 °F - 66.9 °F 90% 29.91 in 7.0 mi Variable 3.5 mph - 0.26 in   Overcast
8:53 AM 72.0 °F - 68.0 °F 87% 29.91 in 6.0 mi Variable 4.6 mph - N/A   Mostly Cloudy
9:53 AM 75.0 °F - 68.0 °F 79% 29.91 in 9.0 mi Variable 5.8 mph - N/A   Mostly Cloudy
10:53 AM 78.1 °F - 66.9 °F 68% 29.91 in 10.0 mi West 6.9 mph - N/A   Mostly Cloudy
11:53 AM 79.0 °F - 68.0 °F 69% 29.90 in 10.0 mi NNW 3.5 mph - N/A   Mostly Cloudy
12:13 PM 80.1 °F 82.1 °F 66.0 °F 62% 29.90 in 10.0 mi Variable 3.5 mph - N/A Thunderstorm Thunderstorm
12:53 PM 81.0 °F 83.0 °F 66.0 °F 60% 29.89 in 10.0 mi Calm Calm - N/A Thunderstorm Thunderstorm
1:43 PM 82.9 °F 84.6 °F 64.9 °F 54% 29.90 in 10.0 mi Variable 4.6 mph - N/A   Mostly Cloudy
1:53 PM 81.0 °F 82.7 °F 64.9 °F 58% 29.88 in 10.0 mi South 8.1 mph - N/A   Mostly Cloudy
2:53 PM 82.9 °F 84.4 °F 64.0 °F 53% 29.86 in 10.0 mi Calm Calm - N/A   Mostly Cloudy
3:53 PM 82.4 °F 83.9 °F 64.4 °F 54% 29.87 in 6.0 mi NE 13.8 mph - N/A   Haze
4:19 PM 75.0 °F - 68.0 °F 79% 29.88 in 4.0 mi East 6.9 mph - 0.01 in Rain , Thunderstorm Thunderstorms and Rain
4:25 PM 73.9 °F - 68.0 °F 82% 29.88 in 1.8 mi SE 9.2 mph - 0.06 in Rain , Thunderstorm Heavy Thunderstorms and Rain
4:49 PM 69.8 °F - 64.4 °F 83% 29.87 in 0.5 mi SE 9.2 mph - 0.55 in Rain , Thunderstorm Heavy Thunderstorms and Rain
4:53 PM 70.0 °F - 64.0 °F 81% 29.86 in 2.0 mi NE 15.0 mph 19.6 mph 0.69 in Rain , Thunderstorm Thunderstorms and Rain
5:00 PM 73.0 °F - 66.9 °F 81% 29.88 in 4.0 mi ENE 12.7 mph 23.0 mph 0.01 in Rain , Thunderstorm Light Thunderstorms and Rain
5:12 PM 73.0 °F - 68.0 °F 84% 29.88 in 10.0 mi East 17.3 mph - 0.01 in Thunderstorm Thunderstorm
5:47 PM 69.8 °F - 66.2 °F 88% 29.91 in 1.5 mi SE 4.6 mph - 0.03 in Rain , Thunderstorm Heavy Thunderstorms and Rain
5:53 PM 69.1 °F - 66.9 °F 93% 29.91 in 0.8 mi ESE 9.2 mph - 0.17 in Rain , Thunderstorm Heavy Thunderstorms and Rain
6:03 PM 69.1 °F - 66.9 °F 93% 29.92 in 1.2 mi SE 13.8 mph - 0.14 in Rain , Thunderstorm Heavy Thunderstorms and Rain
6:14 PM 69.1 °F - 66.9 °F 93% 29.91 in 2.0 mi South 13.8 mph - 0.21 in Rain , Thunderstorm Thunderstorms and Rain
6:26 PM 69.1 °F - 66.0 °F 90% 29.90 in 6.0 mi SSE 15.0 mph - 0.22 in Rain , Thunderstorm Thunderstorms and Rain
6:53 PM 68.0 °F - 66.0 °F 93% 29.89 in 10.0 mi Calm Calm - 0.24 in Thunderstorm Thunderstorm
7:12 PM 68.0 °F - 66.0 °F 93% 29.89 in 2.0 mi Calm Calm - 0.03 in Rain , Thunderstorm Light Thunderstorms and Rain
7:23 PM 68.0 °F - 64.9 °F 90% 29.89 in 10.0 mi SE 6.9 mph - 0.03 in Rain , Thunderstorm Light Thunderstorms and Rain
7:53 PM 68.0 °F - 64.9 °F 90% 29.91 in 10.0 mi ENE 6.9 mph - 0.04 in Rain , Thunderstorm Light Thunderstorms and Rain
8:08 PM 68.0 °F - 64.9 °F 90% 29.93 in 7.0 mi SE 8.1 mph - 0.01 in Rain Light Rain
8:17 PM 68.0 °F - 66.0 °F 93% 29.93 in 7.0 mi SE 8.1 mph - 0.01 in Rain Light Rain
8:26 PM 66.9 °F - 64.9 °F 93% 29.93 in 9.0 mi ESE 12.7 mph - 0.02 in Rain Light Rain
8:53 PM 66.9 °F - 64.0 °F 90% 29.92 in 10.0 mi East 8.1 mph - 0.02 in   Overcast
9:53 PM 64.0 °F - 62.1 °F 93% 29.96 in 5.0 mi East 11.5 mph - 0.00 in Rain Light Rain
10:53 PM 64.0 °F - 61.0 °F 90% 29.97 in 4.0 mi SE 9.2 mph - 0.04 in Rain Light Rain
11:28 PM 63.0 °F - 61.0 °F 93% 29.95 in 4.0 mi East 5.8 mph - 0.00 in   Scattered Clouds
11:53 PM 62.1 °F - 60.1 °F 93% 29.93 in 6.0 mi East 8.1 mph - 0.00 in   Clear